Terug naar catalogus

COSMOS 2615

ActiefMilitairSSO
NORAD 68826·PAYLOAD·🇷🇺 Russia

Gelanceerd Apr 23, 2026 vanaf Plesetsk Cosmodrome

Loading…

Volgende Passages (komende 24 uur)

TLE

VersSource: Space-Track

Epoch: Sep 14, 2026, 12:30 UTC

1 68826U 26090A   26257.52090395  .00033528  00000-0  13444-3 0  9992
2 68826  96.6347 172.8285 0011318  66.1437 294.1021 15.86336452 22838

Volg COSMOS 2615 in realtime met AllMySat

Download on the App Store